DW2633 Weather Reports


time (UTC)temp
C
wind
direction
speed
KPH
gust
KPH
rain 1hr
cm
rain 24hr
cm
rain mn
cm
humidity
%
barometer
mb
20260906031513 18 79 11.3 0.0 0.00 0.00 0.00 79 1012.1
20260906031007 18 65 11.3 0.0 0.00 0.00 0.00 79 1012.2
20260906030504 17 55 8.0 0.0 0.00 0.00 0.00 79 1012.1
20260906030006 18 32 6.4 0.0 0.00 0.00 0.00 80 1012.0
20260906025505 18 73 6.4 0.0 0.00 0.00 0.00 79 1012.0
20260906025002 18 98 6.4 0.0 0.00 0.00 0.00 79 1011.9
20260906024506 18 78 6.4 0.0 0.00 0.00 0.00 79 1011.9
20260906024002 18 61 4.8 0.0 0.00 0.00 0.00 79 1011.8
20260906023501 18 82 4.8 0.0 0.00 0.00 0.00 79 1011.9
20260906023001 18 88 6.4 0.0 0.00 0.00 0.00 79 1011.8
20260906022501 18 71 4.8 0.0 0.00 0.00 0.00 79 1011.9
20260906022002 18 69 4.8 0.0 0.00 0.00 0.00 80 1011.9
20260906021501 18 79 4.8 0.0 0.00 0.00 0.00 80 1011.9
20260906021059 18 87 4.8 0.0 0.00 0.00 0.00 80 1011.8
20260906020600 18 70 3.2 0.0 0.00 0.00 0.00 81 1011.8
20260906020101 18 81 3.2 0.0 0.00 0.00 0.00 82 1011.7
20260906015559 18 111 3.2 0.0 0.00 0.00 0.00 82 1011.7
20260906015059 18 91 4.8 0.0 0.00 0.00 0.00 83 1011.8
20260906014559 18 59 4.8 0.0 0.00 0.00 0.00 84 1011.7
20260906014059 18 62 3.2 0.0 0.00 0.00 0.00 85 1011.6
20260906013602 18 63 1.6 0.0 0.00 0.00 0.00 86 1011.5
20260906013105 18 84 1.6 0.0 0.00 0.00 0.00 85 1011.5
20260906012559 18 119 0.0 0.0 0.00 0.00 0.00 85 1011.6
20260906012058 18 118 0.0 0.0 0.00 0.00 0.00 85 1011.6
20260906011602 18 118 0.0 0.0 0.00 0.00 0.00 85 1011.6
20260906011058 18 118 0.0 0.0 0.00 0.00 0.00 85 1011.6
20260906010557 18 118 1.6 0.0 0.00 0.00 0.00 85 1011.6
20260906010056 18 118 1.6 0.0 0.00 0.00 0.00 85 1011.5
20260906005558 18 119 3.2 0.0 0.00 0.00 0.00 85 1011.4
20260906005056 18 119 4.8 0.0 0.00 0.00 0.00 84 1011.4
20260906004557 18 118 4.8 0.0 0.00 0.00 0.00 85 1011.4
20260906004055 19 101 4.8 0.0 0.00 0.00 0.00 84 1011.4
20260906003555 19 42 3.2 0.0 0.00 0.00 0.00 83 1011.4
20260906003055 19 51 3.2 0.0 0.00 0.00 0.00 83 1011.4
20260906002554 19 80 4.8 0.0 0.00 0.00 0.00 83 1011.3
20260906002058 19 42 6.4 0.0 0.00 0.00 0.00 83 1011.3
20260906001555 19 57 6.4 0.0 0.00 0.00 0.00 82 1011.4
20260906001053 19 355 6.4 0.0 0.00 0.00 0.00 82 1011.2
20260906000556 19 13 6.4 0.0 0.00 0.00 0.00 82 1011.2
20260906000059 19 65 4.8 0.0 0.00 0.00 0.00 82 1011.2
20260905235552 19 5 4.8 0.0 0.00 0.00 0.00 81 1011.1
20260905235052 19 51 4.8 0.0 0.00 0.00 0.00 81 1011.1
20260905234556 19 360 4.8 0.0 0.00 0.00 0.00 81 1011.0
20260905234051 20 25 4.8 0.0 0.00 0.00 0.00 81 1010.9
20260905233551 20 59 4.8 0.0 0.00 0.00 0.00 81 1010.9
20260905233053 20 32 4.8 0.0 0.00 0.00 0.00 79 1010.9
20260905232551 20 13 4.8 0.0 0.00 0.00 0.00 80 1010.9
20260905232055 20 19 3.2 0.0 0.00 0.00 0.00 80 1010.9
20260905231551 20 22 3.2 0.0 0.00 0.00 0.00 80 1010.9
20260905231050 20 28 3.2 0.0 0.00 0.00 0.00 78 1011.0
20260905230555 20 71 3.2 0.0 0.00 0.00 0.00 78 1011.0
20260905230049 20 73 3.2 0.0 0.00 0.00 0.00 77 1011.1
20260905225550 20 96 4.8 0.0 0.00 0.00 0.00 77 1011.0
20260905225051 20 90 4.8 0.0 0.00 0.00 0.00 78 1010.9
20260905224549 20 58 4.8 0.0 0.00 0.00 0.00 78 1010.8
20260905224049 20 82 6.4 0.0 0.00 0.00 0.00 78 1010.8
20260905223548 20 78 8.0 0.0 0.00 0.00 0.00 77 1010.6
20260905223048 20 79 8.0 0.0 0.00 0.00 0.00 77 1010.6
20260905222548 20 53 8.0 0.0 0.00 0.00 0.00 76 1010.5
20260905222047 20 61 6.4 0.0 0.00 0.00 0.00 78 1010.5
20260905221549 20 42 6.4 0.0 0.00 0.00 0.00 77 1010.4
20260905221047 20 66 6.4 0.0 0.00 0.00 0.00 78 1010.4
20260905220547 20 59 6.4 0.0 0.00 0.00 0.00 78 1010.3
20260905220047 20 33 6.4 0.0 0.00 0.00 0.00 79 1010.3
20260905215547 20 63 6.4 0.0 0.00 0.00 0.00 78 1010.3
20260905215047 20 38 6.4 0.0 0.00 0.00 0.00 80 1010.3
20260905214550 20 30 6.4 0.0 0.00 0.00 0.00 80 1010.4
20260905214050 20 32 6.4 0.0 0.00 0.00 0.00 78 1010.4
20260905213546 20 41 8.0 0.0 0.00 0.00 0.00 76 1010.4
20260905213048 20 51 8.0 0.0 0.00 0.00 0.00 76 1010.4
20260905212546 20 56 8.0 0.0 0.00 0.00 0.00 77 1010.2
20260905212047 20 51 8.0 0.0 0.00 0.00 0.00 76 1010.3
20260905211602 20 57 8.0 0.0 0.00 0.00 0.00 74 1010.3
20260905211049 20 60 9.7 0.0 0.00 0.00 0.00 72 1010.3
20260905210545 20 61 11.3 0.0 0.00 0.00 0.00 73 1010.3
20260905210058 20 66 12.9 0.0 0.00 0.00 0.00 73 1010.5
20260905205545 21 86 14.5 0.0 0.00 0.00 0.00 74 1010.4
20260905205045 21 52 11.3 0.0 0.00 0.00 0.00 73 1010.4
20260905204547 21 61 8.0 0.0 0.00 0.00 0.00 74 1010.3
20260905204048 21 30 9.7 0.0 0.00 0.00 0.00 72 1010.3
20260905203545 21 42 9.7 0.0 0.00 0.00 0.00 73 1010.3
20260905203045 21 25 9.7 0.0 0.00 0.00 0.00 75 1010.2
20260905202545 21 31 8.0 0.0 0.00 0.00 0.00 73 1010.2
20260905202044 21 33 8.0 0.0 0.00 0.00 0.00 71 1010.2
20260905201551 21 5 8.0 0.0 0.00 0.00 0.00 73 1010.2
20260905201043 21 5 6.4 0.0 0.00 0.00 0.00 71 1010.2
20260905200544 21 27 8.0 0.0 0.00 0.00 0.00 70 1010.2
20260905200045 21 37 9.7 0.0 0.00 0.00 0.00 71 1010.2
20260905195543 21 20 8.0 0.0 0.00 0.00 0.00 70 1010.0
20260905195043 21 43 6.4 0.0 0.00 0.00 0.00 70 1010.0
20260905194543 21 49 6.4 0.0 0.00 0.00 0.00 69 1010.0
20260905194047 21 66 6.4 0.0 0.00 0.00 0.00 69 1010.0
20260905193545 21 29 6.4 0.0 0.00 0.00 0.00 71 1010.0
20260905193043 21 39 6.4 0.0 0.00 0.00 0.00 68 1010.0
20260905192543 21 68 6.4 0.0 0.00 0.00 0.00 71 1010.0
20260905192044 21 88 6.4 0.0 0.00 0.00 0.00 71 1010.0
20260905191542 21 77 6.4 0.0 0.00 0.00 0.00 72 1010.1
20260905191045 21 36 6.4 0.0 0.00 0.00 0.00 71 1010.1
20260905190542 21 55 9.7 0.0 0.00 0.00 0.00 73 1010.2
20260905190042 21 55 11.3 0.0 0.00 0.00 0.00 71 1010.2
20260905185542 21 49 11.3 0.0 0.00 0.00 0.00 70 1010.1
20260905185041 21 50 11.3 0.0 0.00 0.00 0.00 67 1010.1
20260905184541 21 61 9.7 0.0 0.00 0.00 0.00 67 1010.1
20260905184043 21 38 8.0 0.0 0.00 0.00 0.00 69 1010.0
20260905183541 21 67 8.0 0.0 0.00 0.00 0.00 71 1010.1
20260905183044 21 67 8.0 0.0 0.00 0.00 0.00 70 1010.1
20260905182540 21 50 8.0 0.0 0.00 0.00 0.00 69 1010.0
20260905182041 21 46 8.0 0.0 0.00 0.00 0.00 71 1010.0
20260905181541 21 55 8.0 0.0 0.00 0.00 0.00 69 1010.1
20260905181040 21 30 6.4 0.0 0.00 0.00 0.00 69 1010.0
20260905180540 22 26 6.4 0.0 0.00 0.00 0.00 68 1009.9
20260905180039 22 40 6.4 0.0 0.00 0.00 0.00 68 1009.9
20260905175539 21 355 4.8 0.0 0.00 0.00 0.00 70 1009.9
20260905175040 21 106 6.4 0.0 0.00 0.00 0.00 71 1009.8
20260905174537 21 120 8.0 0.0 0.00 0.00 0.00 73 1009.9
20260905174038 21 120 9.7 0.0 0.00 0.00 0.00 74 1010.0
20260905173541 20 123 11.3 0.0 0.00 0.00 0.00 75 1010.0
20260905173054 20 117 11.3 0.0 0.00 0.00 0.00 76 1010.0
20260905172537 20 116 11.3 0.0 0.00 0.00 0.00 76 1010.0
20260905172041 20 119 11.3 0.0 0.00 0.00 0.00 75 1010.0
20260905171539 21 106 11.3 0.0 0.00 0.00 0.00 73 1010.0
20260905171036 21 96 9.7 0.0 0.00 0.00 0.00 70 1009.9
20260905170536 21 69 4.8 0.0 0.00 0.00 0.00 69 1010.0
20260905170038 21 355 3.2 0.0 0.00 0.00 0.00 69 1009.9
20260905165536 21 355 4.8 0.0 0.00 0.00 0.00 70 1009.9
20260905165038 21 325 3.2 0.0 0.00 0.00 0.00 71 1009.9
20260905164535 21 340 3.2 0.0 0.00 0.00 0.00 69 1009.8
20260905164035 21 36 4.8 0.0 0.00 0.00 0.00 71 1009.9
20260905163534 21 103 4.8 0.0 0.00 0.00 0.00 71 1009.9
20260905163034 21 70 4.8 0.0 0.00 0.00 0.00 70 1009.8
20260905162534 21 55 4.8 0.0 0.00 0.00 0.00 70 1010.0
20260905162034 21 61 3.2 0.0 0.00 0.00 0.00 69 1010.0
20260905161535 21 348 3.2 0.0 0.00 0.00 0.00 70 1010.0
20260905161033 21 341 3.2 0.0 0.00 0.00 0.00 72 1010.0
20260905160533 21 360 1.6 0.0 0.00 0.00 0.00 71 1010.0
20260905160035 21 55 1.6 0.0 0.00 0.00 0.00 69 1010.0
20260905155531 21 9 3.2 0.0 0.00 0.00 0.00 71 1010.0
20260905155030 21 51 3.2 0.0 0.00 0.00 0.00 72 1010.0
20260905154534 21 346 3.2 0.0 0.00 0.00 0.00 71 1010.0
20260905154034 21 360 3.2 0.0 0.00 0.00 0.00 73 1010.1
20260905153529 21 360 3.2 0.0 0.00 0.00 0.00 71 1010.1
20260905153029 20 21 3.2 0.0 0.00 0.00 0.00 72 1010.0
20260905152529 20 24 3.2 0.0 0.00 0.00 0.00 71 1010.1
20260905152031 20 295 4.8 0.0 0.00 0.00 0.00 74 1010.0
20260905151528 20 292 6.4 0.0 0.00 0.00 0.00 74 1010.3
20260905151032 20 292 6.4 0.0 0.00 0.00 0.00 73 1010.2
20260905150526 20 302 6.4 0.0 0.00 0.00 0.00 73 1010.2
20260905150025 20 321 8.0 0.0 0.00 0.00 0.00 75 1010.3
20260905145525 20 327 8.0 0.0 0.00 0.00 0.00 75 1010.3
20260905145024 20 350 8.0 0.0 0.00 0.00 0.00 76 1010.3
20260905144524 20 355 6.4 0.0 0.00 0.00 0.00 74 1010.2
20260905144025 20 355 8.0 0.0 0.00 0.00 0.00 75 1010.2
20260905143523 20 336 8.0 0.0 0.00 0.00 0.00 76 1010.3
20260905143029 19 355 9.7 0.0 0.00 0.00 0.00 78 1010.3
20260905142523 19 5 9.7 0.0 0.00 0.00 0.00 76 1010.4
20260905142026 19 5 11.3 0.0 0.00 0.00 0.00 77 1010.4
20260905141528 19 5 11.3 0.0 0.00 0.00 0.00 77 1010.5
20260905141025 19 355 9.7 0.0 0.00 0.00 0.00 77 1010.5
20260905140524 19 347 9.7 0.0 0.00 0.00 0.00 76 1010.4
20260905140021 19 360 9.7 0.0 0.00 0.00 0.00 78 1010.4
20260905135521 18 360 9.7 0.0 0.00 0.00 0.00 78 1010.4
20260905135022 18 10 9.7 0.0 0.00 0.00 0.00 78 1010.5
20260905134521 18 355 8.0 0.0 0.00 0.00 0.00 78 1010.4
20260905134024 18 360 8.0 0.0 0.00 0.00 0.00 77 1010.5
20260905133521 18 342 8.0 0.0 0.00 0.00 0.00 79 1010.5
20260905133020 18 337 8.0 0.0 0.00 0.00 0.00 78 1010.7
20260905132520 18 355 8.0 0.0 0.00 0.00 0.00 78 1010.8
20260905132022 18 348 9.7 0.0 0.00 0.00 0.00 79 1010.9
20260905131524 18 355 9.7 0.0 0.00 0.00 0.00 78 1010.9
20260905131020 18 338 9.7 0.0 0.00 0.00 0.00 78 1010.8
20260905130520 18 355 9.7 0.0 0.00 0.00 0.00 79 1010.9
20260905130020 18 355 9.7 0.0 0.00 0.00 0.00 81 1010.8
20260905125519 18 355 11.3 0.0 0.00 0.00 0.00 81 1010.8
20260905125019 18 360 12.9 0.0 0.00 0.00 0.00 81 1010.8
20260905124529 18 344 12.9 0.0 0.00 0.00 0.00 81 1010.7
20260905124020 18 338 12.9 0.0 0.00 0.00 0.00 81 1010.6
20260905123517 18 342 12.9 0.0 0.00 0.00 0.00 82 1010.6
20260905123017 18 11 11.3 0.0 0.00 0.00 0.00 80 1010.6
20260905122517 18 355 9.7 0.0 0.00 0.00 0.00 80 1010.5
20260905122016 18 9 11.3 0.0 0.00 0.00 0.00 82 1010.5
20260905121516 18 45 11.3 0.0 0.00 0.00 0.00 82 1010.6
20260905121015 17 5 9.7 0.0 0.00 0.00 0.00 82 1010.5
20260905120514 17 21 8.0 0.0 0.00 0.00 0.00 81 1010.4
20260905120014 17 37 8.0 0.0 0.00 0.00 0.00 82 1010.2
20260905115515 17 355 8.0 0.0 0.00 0.00 0.00 81 1010.3
20260905115013 17 5 8.0 0.0 0.00 0.00 0.00 83 1010.2
20260905114512 17 44 8.0 0.0 0.00 0.00 0.00 82 1010.1
20260905114015 17 24 8.0 0.0 0.00 0.00 0.00 83 1009.9
20260905113512 17 21 6.4 0.0 0.00 0.00 0.00 83 1010.0
20260905113011 17 61 6.4 0.0 0.00 0.00 0.00 84 1009.9
20260905112512 16 36 4.8 0.0 0.00 0.00 0.00 83 1009.8
20260905112011 16 26 4.8 0.0 0.00 0.00 0.00 83 1009.8
20260905111512 16 88 4.8 0.0 0.00 0.00 0.00 84 1009.6
20260905111011 16 67 6.4 0.0 0.00 0.00 0.00 84 1009.6
20260905110516 17 59 6.4 0.0 0.00 0.00 0.00 84 1009.4
20260905110010 17 65 6.4 0.0 0.00 0.00 0.00 84 1009.4
20260905105510 16 58 6.4 0.0 0.00 0.00 0.00 83 1009.4
20260905105013 16 63 6.4 0.0 0.00 0.00 0.00 84 1009.4
20260905104510 16 60 6.4 0.0 0.00 0.00 0.00 85 1009.3
20260905104009 16 54 6.4 0.0 0.00 0.00 0.00 84 1009.4
20260905103510 16 74 6.4 0.0 0.00 0.00 0.00 84 1009.3
20260905103010 16 102 8.0 0.0 0.00 0.00 0.00 85 1009.3
20260905102509 16 27 9.7 0.0 0.00 0.00 0.00 85 1009.2
20260905102008 16 22 8.0 0.0 0.00 0.00 0.00 85 1009.1
20260905101516 16 55 6.4 0.0 0.00 0.00 0.00 85 1009.1
20260905101006 16 63 6.4 0.0 0.00 0.00 0.00 85 1009.0
20260905100506 16 57 6.4 0.0 0.00 0.00 0.00 85 1009.0
20260905100006 17 36 6.4 0.0 0.00 0.00 0.00 84 1008.9
20260905095504 17 59 6.4 0.0 0.00 0.00 0.00 84 1008.9
20260905095007 17 82 8.0 0.0 0.00 0.00 0.00 85 1009.0
20260905094504 17 32 8.0 0.0 0.00 0.00 0.00 86 1009.2
20260905094004 17 28 8.0 0.0 0.00 0.00 0.00 86 1009.1
20260905093503 17 28 9.7 0.0 0.00 0.00 0.00 86 1009.1
20260905093004 17 26 11.3 0.0 0.00 0.00 0.00 86 1008.9
20260905092503 17 5 12.9 0.0 0.00 0.00 0.00 86 1009.0
20260905092003 17 10 12.9 0.0 0.00 0.00 0.00 85 1008.9
20260905091503 17 18 12.9 0.0 0.00 0.00 0.00 86 1008.9
20260905091005 17 5 12.9 0.0 0.00 0.00 0.00 86 1008.9
20260905090500 17 26 11.3 0.0 0.00 0.00 0.00 86 1009.1
20260905090100 17 10 9.7 0.0 0.00 0.00 0.00 86 1009.1
20260905085602 17 19 9.7 0.0 0.00 0.00 0.00 86 1008.9
20260905085058 17 38 8.0 0.0 0.00 0.00 0.00 85 1009.0
20260905084600 17 57 8.0 0.0 0.00 0.00 0.00 85 1009.0
20260905084057 17 57 8.0 0.0 0.00 0.00 0.00 86 1009.1
20260905083555 17 50 8.0 0.0 0.00 0.00 0.00 85 1009.0
20260905083056 17 58 8.0 0.0 0.00 0.00 0.00 85 1009.0
20260905082555 17 38 8.0 0.0 0.00 0.00 0.00 86 1009.0
20260905082055 17 38 8.0 0.0 0.00 0.00 0.00 87 1009.1
20260905081554 17 46 6.4 0.0 0.00 0.00 0.00 85 1009.0
20260905081055 18 33 8.0 0.0 0.00 0.00 0.00 85 1009.1
20260905080555 18 48 8.0 0.0 0.00 0.00 0.00 84 1009.1
20260905075552 18 25 9.7 0.0 0.00 0.00 0.00 84 1009.1
20260905075051 18 17 11.3 0.0 0.00 0.00 0.00 84 1009.2
20260905074551 18 360 11.3 0.0 0.00 0.00 0.00 85 1009.2
20260905074051 18 21 11.3 0.0 0.00 0.00 0.00 85 1009.3
20260905073555 18 22 9.7 0.0 0.00 0.00 0.00 83 1009.3
20260905073050 18 5 8.0 0.0 0.00 0.00 0.00 83 1009.4
20260905072548 18 40 8.0 0.0 0.00 0.00 0.00 84 1009.2
20260905072049 17 48 6.4 0.0 0.00 0.00 0.00 84 1009.2
20260905071549 17 34 4.8 0.0 0.00 0.00 0.00 84 1009.3
20260905071049 18 59 3.2 0.0 0.00 0.00 0.00 84 1009.3
20260905070548 18 113 3.2 0.0 0.00 0.00 0.00 85 1009.3
20260905070051 18 87 3.2 0.0 0.00 0.00 0.00 85 1009.5
20260905065548 18 94 4.8 0.0 0.00 0.00 0.00 84 1009.4
20260905065048 18 116 6.4 0.0 0.00 0.00 0.00 84 1009.4
20260905064547 18 60 8.0 0.0 0.00 0.00 0.00 85 1009.6
20260905064048 18 10 8.0 0.0 0.00 0.00 0.00 85 1009.5
20260905063547 18 339 9.7 0.0 0.00 0.00 0.00 85 1009.4
20260905063055 18 336 9.7 0.0 0.00 0.00 0.00 86 1009.4
20260905062545 17 336 4.8 0.0 0.00 0.00 0.00 86 1009.4
20260905062044 17 336 1.6 0.0 0.00 0.00 0.00 86 1009.6
20260905061545 17 122 0.0 0.0 0.00 0.00 0.00 85 1009.7
20260905061044 17 122 1.6 0.0 0.00 0.00 0.00 84 1009.6
20260905060543 18 122 3.2 0.0 0.00 0.00 0.00 85 1009.5
20260905060042 18 119 4.8 0.0 0.00 0.00 0.00 85 1009.5
20260905055542 18 111 4.8 0.0 0.00 0.00 0.00 85 1009.6
20260905055040 18 101 4.8 0.0 0.00 0.00 0.00 84 1009.6
20260905054551 18 107 1.6 0.0 0.00 0.00 0.00 84 1009.7
20260905054039 18 79 1.6 0.0 0.00 0.00 0.00 82 1009.7
20260905053538 18 73 3.2 0.0 0.00 0.00 0.00 82 1009.7
20260905053036 19 94 4.8 0.0 0.00 0.00 0.00 81 1009.7
20260905052538 19 73 6.4 0.0 0.00 0.00 0.00 80 1009.8
20260905052035 19 80 8.0 0.0 0.00 0.00 0.00 81 1009.8
20260905051534 19 355 8.0 0.0 0.00 0.00 0.00 78 1009.9
20260905051033 19 346 8.0 0.0 0.00 0.00 0.00 79 1009.9
20260905050534 19 346 9.7 0.0 0.00 0.00 0.00 79 1010.0
20260905050033 20 342 8.0 0.0 0.00 0.00 0.00 78 1010.0
20260905045532 20 355 8.0 0.0 0.00 0.00 0.00 79 1010.0
20260905045033 20 15 8.0 0.0 0.00 0.00 0.00 79 1009.9
20260905044532 20 9 8.0 0.0 0.00 0.00 0.00 79 1010.0
20260905044031 20 360 8.0 0.0 0.00 0.00 0.00 79 1010.0
20260905043531 20 5 8.0 0.0 0.00 0.00 0.00 77 1010.1
20260905043030 19 16 6.4 0.0 0.00 0.00 0.00 79 1010.1
20260905042529 19 15 6.4 0.0 0.00 0.00 0.00 79 1010.0
20260905042029 19 39 4.8 0.0 0.00 0.00 0.00 78 1010.0
20260905041528 19 47 3.2 0.0 0.00 0.00 0.00 77 1010.0
20260905041027 20 63 3.2 0.0 0.00 0.00 0.00 77 1010.0
20260905040527 20 96 3.2 0.0 0.00 0.00 0.00 77 1010.1
20260905040032 20 70 4.8 0.0 0.00 0.00 0.00 78 1010.0
20260905035525 20 57 4.8 0.0 0.00 0.00 0.00 76 1010.0
20260905035026 20 58 4.8 0.0 0.00 0.00 0.00 75 1010.0
20260905034530 20 5 6.4 0.0 0.00 0.00 0.00 75 1010.0
20260905034026 20 36 6.4 0.0 0.00 0.00 0.00 76 1010.0
20260905033525 20 10 6.4 0.0 0.00 0.00 0.00 78 1010.0
20260905033030 20 47 6.4 0.0 0.00 0.00 0.00 76 1009.8
20260905032525 20 28 6.4 0.0 0.00 0.00 0.00 78 1009.9
20260905032025 20 30 8.0 0.0 0.00 0.00 0.00 78 1010.0